TimeAKDT,TemperatureF,Dew PointF,Humidity,Sea Level PressureIn,VisibilityMPH,Wind Direction,Wind SpeedMPH,Gust SpeedMPH,PrecipitationIn,Events,Conditions,WindDirDegrees,DateUTC
12:49 AM,51.8,51.8,100,29.99,0.5,Calm,Calm,-,N/A,Fog,Fog,0,2013-09-03 08:49:00
12:53 AM,52.0,52.0,100,29.99,0.8,Calm,Calm,-,N/A,,Mist,0,2013-09-03 08:53:00
1:06 AM,53.6,51.8,94,29.99,2.5,Calm,Calm,-,N/A,,Mostly Cloudy,0,2013-09-03 09:06:00
1:13 AM,51.8,51.8,100,29.99,10.0,Calm,Calm,-,N/A,,Mostly Cloudy,0,2013-09-03 09:13:00
1:18 AM,51.8,51.8,100,29.99,1.8,Calm,Calm,-,N/A,,Mostly Cloudy,0,2013-09-03 09:18:00
1:30 AM,51.8,51.8,100,30.00,0.8,Calm,Calm,-,N/A,,Mist,0,2013-09-03 09:30:00
1:53 AM,51.1,51.1,100,30.00,0.5,Calm,Calm,-,N/A,Fog,Fog,0,2013-09-03 09:53:00
2:12 AM,53.6,53.6,100,30.00,0.2,Calm,Calm,-,N/A,Fog,Fog,0,2013-09-03 10:12:00
2:53 AM,52.0,52.0,100,30.00,0.2,Calm,Calm,-,N/A,Fog,Fog,0,2013-09-03 10:53:00
3:08 AM,51.8,51.8,100,30.00,0.5,Calm,Calm,-,N/A,Fog,Fog,0,2013-09-03 11:08:00
3:19 AM,51.8,51.8,100,30.00,1.2,Calm,Calm,-,N/A,,Overcast,0,2013-09-03 11:19:00
3:53 AM,53.1,52.0,96,30.00,0.5,ESE,4.6,-,N/A,Fog,Fog,120,2013-09-03 11:53:00
4:00 AM,53.6,53.6,100,29.99,0.2,SE,4.6,-,N/A,Fog,Fog,130,2013-09-03 12:00:00
4:53 AM,54.0,54.0,100,29.99,0.2,Calm,Calm,-,N/A,Fog,Fog,0,2013-09-03 12:53:00
5:53 AM,54.0,54.0,100,30.00,0.2,WNW,4.6,-,N/A,Fog,Fog,300,2013-09-03 13:53:00
6:53 AM,55.0,55.0,100,30.00,0.2,NW,4.6,-,N/A,Fog,Fog,320,2013-09-03 14:53:00
7:53 AM,55.9,55.9,100,30.01,0.2,NW,3.5,-,N/A,Fog,Fog,320,2013-09-03 15:53:00
8:20 AM,55.4,55.4,100,30.01,0.2,Calm,Calm,-,N/A,Fog,Fog,0,2013-09-03 16:20:00
8:53 AM,55.9,55.9,100,30.00,0.2,Calm,Calm,-,N/A,Fog,Fog,0,2013-09-03 16:53:00
9:18 AM,57.2,57.2,100,29.99,0.8,Calm,Calm,-,N/A,,Mist,0,2013-09-03 17:18:00
9:53 AM,57.0,57.0,100,29.99,1.0,ESE,3.5,-,N/A,,Mist,120,2013-09-03 17:53:00
10:01 AM,57.2,57.2,100,29.99,4.0,SE,3.5,-,N/A,,Overcast,140,2013-09-03 18:01:00
10:53 AM,60.1,59.0,96,30.00,10.0,WNW,3.5,-,N/A,,Overcast,300,2013-09-03 18:53:00
11:32 AM,64.4,60.8,88,30.00,10.0,Calm,Calm,-,N/A,,Scattered Clouds,0,2013-09-03 19:32:00
11:53 AM,66.9,57.9,73,30.00,10.0,Calm,Calm,-,N/A,,Clear,0,2013-09-03 19:53:00
12:53 PM,72.0,55.9,57,30.00,10.0,Calm,Calm,-,N/A,,Clear,0,2013-09-03 20:53:00
1:53 PM,70.0,57.9,65,30.00,10.0,Variable,4.6,-,N/A,,Clear,0,2013-09-03 21:53:00
2:53 PM,68.0,57.0,68,29.99,10.0,SSW,3.5,-,N/A,,Clear,210,2013-09-03 22:53:00
3:53 PM,71.1,57.0,61,29.97,10.0,SSW,4.6,-,N/A,,Clear,210,2013-09-03 23:53:00
4:53 PM,68.0,57.0,68,29.97,10.0,South,3.5,-,N/A,,Clear,190,2013-09-04 00:53:00
5:53 PM,64.9,55.9,73,29.96,10.0,SSE,3.5,-,N/A,,Clear,160,2013-09-04 01:53:00
6:53 PM,62.1,55.9,80,29.95,10.0,Calm,Calm,-,N/A,,Clear,0,2013-09-04 02:53:00
7:53 PM,61.0,55.9,83,29.95,10.0,Calm,Calm,-,N/A,,Clear,0,2013-09-04 03:53:00
8:53 PM,57.9,55.9,93,29.97,10.0,Calm,Calm,-,N/A,,Clear,0,2013-09-04 04:53:00
9:53 PM,55.9,55.0,97,29.97,10.0,Calm,Calm,-,N/A,,Clear,0,2013-09-04 05:53:00
10:53 PM,55.0,54.0,96,29.97,10.0,Calm,Calm,-,N/A,,Clear,0,2013-09-04 06:53:00
11:53 PM,55.9,54.0,93,29.99,10.0,Calm,Calm,-,N/A,,Clear,0,2013-09-04 07:53:00